Showing default

BEIDOU 3M7, 43245

Orbit data source: Space-Track

BEIDOU 3M7, 43245 is a payload satellite owned by CNSA (CN) in MEO that was launched on Thu, 29 Mar 2018 UTC via a CHANG ZHENG 3B/YZ-1 launch vehicle from the Xichang Space Center, China (XSC). Payload-class satellites include a variety of spacecraft equipped with specific instruments for various scientific and technological missions. These include communications satellites like Starlink; space stations such as the ISS; scientific satellites like the Hubble; Earth observation satellites from companies like Planet Labs, Umbra, and HawkEye 360; GPS; miniature CubeSats for education and research; and military/defense satellites.

Loading next visibility...
Identifier
43245, 2018-029A
Orbit
MEO
Country
Flag of CNCN / PRC
Related business
Manufacturer
SECM
Mission
Operational Defense Navigation
Bus & Motor
BD-3M2, Unknown motor
Mass
1,014 kg wet, ~850 kg dry
Launch date (UTC)
2018-03-29 (8 years ago)
Launch vehicle
CHANG ZHENG 3B/YZ-1
Launch site
Xichang Space Center, China (XSC)
Object type
Payload
Rocket body
Debris
Shape & HBR
Box + 2 Pan, 5.0 m
Radar Cross Section
8.984 m², Large (>1 m²)

Expand to show TLE details & history
Last TLE update: 2 days ago

TLE from 2 days ago
0 BEIDOU 3M7
1 43245U 18029A   26171.17043730 -.00000089  00000-0  00000-0 0  9998
2 43245  54.1908 299.8436 0000999 153.7677 206.2347  1.86227999 55952
Epoch: 2026-06-20T04:05Z
TLE epoch observation values (Epoch: 2026-06-20T04:05:25.782Z)
Latitude
-0.00001°
Longitude
-29.9193°
Altitude
21,531.111 km
Speed
3.779 km/s
True Right ascension
19h 59m 18s
True Declination
0° 00' 00"
Sunlit
Object was in daylight at epoch
Visualization orbit readout
Latitude
Unknown
Longitude
Unknown
Altitude
Unknown
Speed
Unknown
Apparent Right ascension
Unknown
Apparent Declination
Unknown
Sunlit
N/A
Visualization observer readout
Local Sidereal Time
21:29:32
Azimuth
Unknown
Elevation
Unknown
Doppler factor
Unknown
Orbital elements
Apogee altitude
21,531.178 km
Perigee altitude
21,525.602 km
Semi-major axis
27,906.527 km
Eccentricity
0.0001
Inclination
54.1908°
RAAN
299.8436°
Arg. of periapsis
153.7677°
True anomaly
206.22964°
Mean anomaly
206.2347°
Eccentric anomaly
206.23217°
Mean motion
0.46557 °/min
Orbital period
773.25 mins
BSTAR
0
Loading maneuver chart data...
Computing Atmospheric mass density...
Loading historical data...
Loading historical data...
Loading historical data...
Loading historical data...
Loading historical data...
Loading historical data...
Loading historical data...
Other satellites on launch #29 in the year 2018 (2018-03-29 UTC)

Documentation

Showing up to 5 results
|